Tracking 19817 objects as of 19-Aug-2019
HD Live streaming from Space Station
objects crossing your sky now

COSMOS 2251 DEB

Track COSMOS 2251 DEB now!
10-day predictions


NORAD ID: 33894
Int'l Code: 1993-036CX
Perigee: 761.1 km
Apogee: 1,664.5 km
Inclination: 73.8 °
Period: 109.5 minutes
Semi major axis: 7583 km
RCS: 0.0609 m2 (small)
Launch date: June 16, 1993
Source: Commonwealth of Independent States (former USSR) (CIS)
Launch site: PLESETSK MISSILE AND SPACE COMPLEX (PKMTR)

Note: This is SATELLITE DEBRIS
aabbcc
Your satellite tracking list
Your tracking list is empty




NASA's NSSDC Master Catalog

Two Line Element Set (TLE):
1 33894U 93036CX  19230.56192758 +.00000664 +00000-0 +74642-3 0  9998
2 33894 073.7702 290.9767 0595567 175.8748 184.7584 13.14532974503310
Source of the keplerian elements: AFSPC